Location: Multiple Mirror Telescope
(31.6889°N, 110.8853°W)
Time: 11:12:32
(UTC-07:00)

Hubble Space Telescope - Pass Details

Date: 27 May 2024
Orbit: 511 x 515 km, 28.5° (Epoch: 14 June)

Event Time Altitude Azimuth Distance (km) Brightness Sun altitude
Rises 21:58:23 0° 263° (W) 2,610 4.7 -26.8°
Reaches altitude 10° 22:00:39 10° 259° (WSW) 1,723 3.6 -27.1°
Enters shadow 22:01:19 14° 256° (WSW) 1,471 3.2 -27.1°
